INSAT-3C

Last updated on Sept. 4, 2017, 12:18 a.m. UTC

1 27298U 02002A   17246.44024059 -.00000225  00000-0  00000+0 0  9999
2 27298   0.7896  91.4833 0011754  74.0465 278.6035  0.99302213 57183
UTC
Height (km)
Latitude
Longitude
Inclination
Orbital Period
UTC large
Height (km)
Speed (km/s)
/
Latitude / Longitude
Inclination (degrees)
Orbital Period (minutes)
Azimuth
Elevation
Range (km)
Doppler Factor
iOS Compass Heading
iOS Angle

Next 30 passes for location: Hong Kong

Rise time Rise Azimuth (degrees) Set time Set Azimuth (degrees) Duration Max altitude (degrees)

No matching passes for this satellites